Regional Weather Roundup
Issued by NWS

Home | Current Version | Previous Version | Text Only | Print | Product List | Glossary On
Versions: 1 2 3 4 5 6 7 8 9 10 11 12 13 14 15 16 17 18 19 20 21 22 23 24 25 26 27 28 29 30 31 32 33 34 35 36 37 38 39 40 41 42 43 44 45 46 47 48 49 50
000
ASUS42 KFFC 260103
RWRGA
WEATHER ROUNDUP FOR GEORGIA
NATIONAL WEATHER SERVICE PEACHTREE CITY GA
900 PM EDT WED APR 25 2018

NOTE: "FAIR" INDICATES FEW OR NO CLOUDS BELOW 12,000 FEET WITH NO
SIGNIFICANT WEATHER AND/OR OBSTRUCTIONS TO VISIBILITY.

* = USE WITH CAUTION. THE STATIONS MARKED WITH AN ASTERISK MAY NOT
REPORT WEATHER SUCH AS PRECIPITATION, FOG, OR THUNDER AND ARE NOT
QUALITY CONTROLLED BY NWS.

THE REMARK "TC" DENOTES TEMPERATURE READING IN DEGREES CELSIUS.

GAZ001>058-260200-
NORTH GEORGIA

CITY           SKY/WX    TMP DP  RH WIND       PRES   REMARKS
ATLANTA        FAIR      63  50  62 N13       29.92S
ATHENS         FAIR      61  51  70 W6        29.88R
CHAMBLEE       CLOUDY    61  49  64 NW10      29.91F
PEACHTREE CITY FAIR      60  54  80 NW5       29.92S
ROME           FAIR      61  52  72 CALM      29.92F
WEST ATLANTA   FAIR      61  49  64 N6        29.92S
GAINESVILLE    MOCLDY    61  49  64 NW9       29.91S
CARTERSVILLE   FAIR      58  50  75 CALM      29.93F


CITY           SKY/WX    TMP DP  RH WIND       PRES   REMARKS
DALTON*        FAIR      57  52  82 CALM      29.95S
LAWRENCEVILLE* CLOUDY    64  50  59 W12       29.91S
MARIETTA       PTCLDY    61  48  62 NW9       29.92S
KENNESAW*      FAIR      60  48  64 NW5       29.94S
CANTON*        CLOUDY    61  46  59 CALM      29.93F
BLAIRSVILLE*   CLOUDY    56  49  76 W3        29.95S
$$

GAZ059>098-102>109-260200-
CENTRAL GEORGIA

CITY           SKY/WX    TMP DP  RH WIND       PRES   REMARKS
AUGUSTA-BUSH   FAIR      67  55  65 W6        29.84R
AUGUSTA-DANIEL FAIR      69  54  58 VRB5      29.85R
COLUMBUS       FAIR      66  52  60 CALM      29.92S
MACON          CLOUDY    66  54  65 NW5       29.90R
ROBINS AFB     MOCLDY    67  54  62 NW8       29.89R


CITY           SKY/WX    TMP DP  RH WIND       PRES   REMARKS
LAGRANGE*      FAIR      58  58  98 CALM      29.92S
SYLVANIA*      FAIR      66  58  76 CALM      29.86R
MILLEDGEVILLE* FAIR      63  55  77 W5        29.88S
$$

GAZ099>101-110>166-260200-
SOUTH GEORGIA

CITY           SKY/WX    TMP DP  RH WIND       PRES   REMARKS
SAVANNAH       FAIR      69  55  60 W5        29.86R
VALDOSTA       FAIR      65  55  70 CALM      29.89R
ALMA           FAIR      70  54  56 NW8       29.88R
ST SIMONS      FAIR      73  56  54 NW5       29.86R
FT STEWART     FAIR      70  54  56 NW6       29.85R
ALBANY         CLOUDY    70  55  59 NW8       29.93R
HUNTER AFB     MOCLDY    69  55  60 W6        29.84R
MOODY AFB      FAIR      68  55  64 NW6       29.88R
BRUNSWICK      MOCLDY    70  54  56 CALM      29.88R


CITY           SKY/WX    TMP DP  RH WIND       PRES   REMARKS
BAINBRIDGE*      N/A     70  59  68 N7        29.92R
MOULTRIE*      FAIR      68  55  64 NW5       29.92R
VIDALIA*       FAIR      68  52  56 W5        29.89R
WAYCROSS*      FAIR      69  56  61 N5        29.89R
DOUGLAS*       FAIR      68  52  56 N6        29.91R
$$




USA.gov is the U.S. government's official web portal to all federal, state and local government web resources and services.